Location: Aufkirchen
(47.9603°N, 11.3653°E)
Time: 10:26:42
(UTC+01:00)

Tiros 1 - Pass Details

Date: 04 December 2020
Orbit: 630 x 663 km, 48.4° (Epoch: 21 January)

Event Time Altitude Azimuth Distance (km) Brightness Sun altitude
Rises 20:03:16 0° 282° (WNW) 2,986 11.6 -36.0°
Reaches altitude 10° 20:06:21 10° 262° (W) 2,065 10.4 -36.5°
Enters shadow 20:07:56 15° 243° (WSW) 1,756 9.9 -36.8°
Maximum altitude 20:09:20 17° 223° (SW) 1,657 - -37.0°
Drops below altitude 10° 20:12:17 10° 184° (S) 2,045 - -37.5°
Sets 20:15:20 0° 163° (SSE) 2,944 - -38.0°
